Weather History for Antigo, WI

Change the Weather History Date:

Sunday, December 16, 2012

  Actual Average Record
Temperature  
Mean Temperature 32 °F -  
Max Temperature 34 °F 26 °F 47 °F (1952)
Min Temperature 30 °F 10 °F -18 °F (2013)
Degree Days  
Heating Degree Days 32    
Moisture  
Dew Point 32 °F    
Average Humidity 98    
Maximum Humidity 100    
Minimum Humidity 94    
Precipitation  
Precipitation 0.03 in - - ()
Sea Level Pressure  
Sea Level Pressure 29.54 in    
Wind  
Wind Speed 4 mph (WNW)    
Max Wind Speed 12 mph    
Max Gust Speed 17 mph    
Visibility 6 miles    
Events Fog , Rain , Snow    
Averages and records for this station are not official NWS values.
T = Trace of Precipitation, MM = Missing Value Source: NWS Daily Summary

Daily Weather History Graph

Daily Weather History Graph

Search for Another Location

Airport:

Trip Planner

Search our weather history database for the weather conditions in past years. The results will help you decide how hot, cold, wet, or windy it might be!

Date:

Astronomy

Dec. 16, 2012 Rise Set
Actual Time 7:29 AM CST 4:15 PM CST
Civil Twilight 6:55 AM CST 4:49 PM CST
Nautical Twilight 6:18 AM CST 5:26 PM CST
Astronomical Twilight 5:42 AM CST 6:02 PM CST
Moon 9:54 AM CST (12/16) 8:38 PM CST (12/16)
Length of Visible Light 9h 53m
Length of Day
8h 45m
Waxing Crescent, 16% of the Moon is Illuminated
Dec 16
Waxing Crescent
Dec 19
First Quarter
Dec 28
Full
Jan 4
Last Quarter
Jan 11
New

Hourly Weather History & Observations

Time (CST) Temp. Windchill Dew Point Humidity Pressure Visibility Wind Dir Wind Speed Gust Speed Precip Events Conditions
12:15 AM 32.9 °F - 32.9 °F 100% 29.49 in 0.8 mi Calm Calm - N/A   Overcast
12:55 AM 32.5 °F - 32.5 °F 100% 29.48 in 0.5 mi Calm Calm - N/A Fog Fog
1:15 AM 32.7 °F - 32.7 °F 100% 29.49 in 0.5 mi Calm Calm - N/A Fog Fog
1:35 AM 32.5 °F - 32.5 °F 100% 29.49 in 0.5 mi Calm Calm - N/A Fog Fog
1:55 AM 32.5 °F - 32.5 °F 100% 29.49 in 0.5 mi Calm Calm - N/A Fog Fog
2:15 AM 32.0 °F - 32.0 °F 100% 29.49 in 0.5 mi Calm Calm - N/A Fog Fog
2:55 AM 32.4 °F - 32.4 °F 100% 29.49 in 0.8 mi Calm Calm - N/A   Overcast
3:35 AM 32.2 °F - 32.2 °F 100% 29.48 in 0.5 mi Calm Calm - N/A Fog Fog
3:55 AM 32.4 °F - 32.4 °F 100% 29.48 in 0.5 mi Calm Calm - N/A Fog Fog
4:15 AM 32.5 °F - 32.5 °F 100% 29.48 in 0.5 mi Calm Calm - N/A Fog Fog
4:35 AM 32.5 °F - 32.5 °F 100% 29.48 in 0.5 mi Calm Calm - N/A Fog Fog
4:55 AM 32.5 °F - 32.5 °F 100% 29.48 in 0.5 mi Calm Calm - N/A Fog Fog
5:15 AM 33.1 °F - 33.1 °F 100% 29.49 in 0.5 mi Calm Calm - 0.01 in Rain Light Rain
5:35 AM 33.1 °F - 33.1 °F 100% 29.49 in 0.5 mi Calm Calm - 0.01 in Rain Rain
5:55 AM 32.9 °F - 32.9 °F 100% 29.49 in 0.8 mi Calm Calm - 0.02 in Rain Light Rain
6:15 AM 33.3 °F - 33.3 °F 100% 29.49 in 0.8 mi Calm Calm - N/A   Overcast
6:35 AM 33.1 °F - 33.1 °F 100% 29.49 in 0.8 mi Calm Calm - N/A   Overcast
6:55 AM 33.1 °F - 33.1 °F 100% 29.50 in 0.8 mi Calm Calm - N/A   Overcast
7:15 AM 33.1 °F 30.0 °F 33.1 °F 100% 29.50 in 0.8 mi West 3.5 mph - N/A   Overcast
7:35 AM 33.4 °F 30.4 °F 33.4 °F 100% 29.50 in 0.5 mi West 3.5 mph - N/A Fog Fog
7:55 AM 33.4 °F - 33.4 °F 100% 29.50 in 0.8 mi Calm Calm - N/A   Overcast
8:15 AM 33.8 °F 29.6 °F 33.8 °F 100% 29.51 in 3.0 mi West 4.6 mph - N/A   Overcast
8:35 AM 33.8 °F 28.6 °F 33.8 °F 100% 29.51 in 2.5 mi West 5.8 mph - N/A Rain Light Rain
8:55 AM 33.8 °F 28.6 °F 33.8 °F 100% 29.52 in 2.5 mi West 5.8 mph - N/A Rain Rain
9:15 AM 33.8 °F 29.6 °F 33.8 °F 100% 29.52 in 4.0 mi WNW 4.6 mph - N/A   Drizzle
9:35 AM 33.8 °F 27.7 °F 33.8 °F 100% 29.52 in 5.0 mi WNW 6.9 mph - N/A   Light Drizzle
9:55 AM 33.8 °F 27.0 °F 33.8 °F 100% 29.53 in 7.0 mi WNW 8.1 mph - 0.01 in   Light Drizzle
10:15 AM 33.8 °F 26.4 °F 33.8 °F 100% 29.54 in 10.0 mi WNW 9.2 mph - N/A   Light Drizzle
10:35 AM 33.8 °F 27.0 °F 33.6 °F 99% 29.55 in 10.0 mi WNW 8.1 mph - N/A   Overcast
10:55 AM 33.8 °F 26.4 °F 33.3 °F 98% 29.54 in 10.0 mi NW 9.2 mph - N/A   Overcast
11:15 AM 34.2 °F 29.0 °F 33.6 °F 98% 29.53 in 10.0 mi NW 5.8 mph - N/A   Overcast
11:35 AM 33.8 °F 28.6 °F 33.1 °F 97% 29.52 in 10.0 mi NW 5.8 mph - N/A   Overcast
11:55 AM 34.2 °F 29.0 °F 33.4 °F 97% 29.52 in 10.0 mi NW 5.8 mph - N/A   Overcast
12:15 PM 34.7 °F 28.8 °F 33.8 °F 97% 29.53 in 10.0 mi WNW 6.9 mph - N/A   Overcast
12:35 PM 34.7 °F 26.9 °F 33.8 °F 97% 29.52 in 10.0 mi WNW 10.4 mph - N/A   Overcast
12:55 PM 34.2 °F 25.7 °F 33.1 °F 96% 29.53 in 10.0 mi WNW 11.5 mph - N/A   Overcast
1:15 PM 33.8 °F 27.7 °F 32.9 °F 96% 29.53 in 10.0 mi WNW 6.9 mph - N/A   Overcast
1:35 PM 34.0 °F 26.6 °F 32.9 °F 96% 29.53 in 10.0 mi WNW 9.2 mph - N/A   Overcast
1:55 PM 34.0 °F 27.2 °F 32.5 °F 94% 29.53 in 10.0 mi NW 8.1 mph - N/A   Overcast
2:15 PM 33.8 °F 27.0 °F 32.4 °F 94% 29.54 in 10.0 mi WNW 8.1 mph - N/A   Overcast
2:35 PM 33.8 °F 28.6 °F 32.2 °F 94% 29.54 in 10.0 mi NW 5.8 mph - N/A   Overcast
2:55 PM 33.8 °F 26.4 °F 32.5 °F 95% 29.55 in 10.0 mi WNW 9.2 mph - N/A   Overcast
3:15 PM 33.4 °F 25.9 °F 32.4 °F 96% 29.55 in 10.0 mi NW 9.2 mph - N/A   Overcast
3:35 PM 33.4 °F 26.6 °F 32.4 °F 96% 29.56 in 10.0 mi NW 8.1 mph - N/A   Overcast
3:55 PM 33.3 °F 27.1 °F 32.2 °F 96% 29.57 in 10.0 mi WNW 6.9 mph - N/A   Overcast
4:15 PM 33.3 °F 26.4 °F 32.0 °F 95% 29.57 in 10.0 mi NW 8.1 mph - N/A   Overcast
4:35 PM 33.1 °F 26.1 °F 32.0 °F 96% 29.58 in 10.0 mi WNW 8.1 mph - N/A   Overcast
4:55 PM 33.1 °F 26.1 °F 32.2 °F 96% 29.58 in 10.0 mi WNW 8.1 mph - N/A   Overcast
5:15 PM 33.1 °F 27.7 °F 32.2 °F 96% 29.59 in 10.0 mi WNW 5.8 mph - N/A   Overcast
5:35 PM 32.9 °F 26.7 °F 32.2 °F 97% 29.59 in 10.0 mi West 6.9 mph - N/A   Overcast
5:55 PM 32.9 °F 26.7 °F 32.0 °F 96% 29.59 in 10.0 mi West 6.9 mph - N/A   Overcast
6:15 PM 32.4 °F 26.9 °F 32.0 °F 99% 29.59 in 10.0 mi West 5.8 mph - N/A   Overcast
6:35 PM 32.2 °F 25.8 °F 32.0 °F 99% 29.60 in 10.0 mi West 6.9 mph - N/A   Overcast
6:55 PM 32.2 °F 25.0 °F 32.0 °F 99% 29.59 in 10.0 mi WNW 8.1 mph - N/A   Overcast
7:15 PM 32.2 °F 24.4 °F 32.0 °F 99% 29.59 in 10.0 mi WNW 9.2 mph - N/A   Overcast
7:35 PM 32.0 °F 24.2 °F 32.0 °F 100% 29.60 in 10.0 mi West 9.2 mph - N/A   Overcast
7:55 PM 32.0 °F 24.2 °F 31.8 °F 99% 29.60 in 10.0 mi WNW 9.2 mph - N/A   Overcast
8:15 PM 32.0 °F 23.6 °F 31.6 °F 99% 29.61 in 10.0 mi West 10.4 mph - N/A   Overcast
8:35 PM 32.0 °F 24.2 °F 31.8 °F 99% 29.61 in 10.0 mi WNW 9.2 mph - N/A   Overcast
8:55 PM 32.0 °F 24.8 °F 31.6 °F 99% 29.62 in 10.0 mi West 8.1 mph - N/A   Overcast
9:15 PM 32.0 °F 24.2 °F 31.1 °F 96% 29.62 in 10.0 mi West 9.2 mph - N/A   Overcast
9:35 PM 32.0 °F 24.8 °F 31.1 °F 96% 29.62 in 7.0 mi West 8.1 mph - N/A Snow Light Snow
9:55 PM 31.6 °F 23.7 °F 31.1 °F 98% 29.62 in 3.0 mi West 9.2 mph - N/A Snow Light Snow
10:15 PM 31.5 °F 22.9 °F 30.6 °F 96% 29.62 in 5.0 mi West 10.4 mph - N/A   Overcast
10:35 PM 31.5 °F 22.3 °F 30.2 °F 95% 29.62 in 10.0 mi West 11.5 mph 17.3 mph N/A   Overcast
10:55 PM 31.5 °F 23.5 °F 30.2 °F 95% 29.62 in 10.0 mi West 9.2 mph - N/A   Overcast
11:15 PM 31.5 °F 23.5 °F 30.0 °F 94% 29.62 in 10.0 mi West 9.2 mph - N/A   Overcast
11:35 PM 31.1 °F 23.7 °F 30.2 °F 96% 29.62 in 7.0 mi West 8.1 mph - N/A   Overcast
11:55 PM 30.9 °F 22.2 °F 30.2 °F 97% 29.62 in 4.0 mi West 10.4 mph - N/A   Overcast